FW5436 Weather Reports


Display with metric or nautical units.
time (UTC)temp
F
wind
direction
speed
MPH
gust
MPH
rain 1hr
in
rain 24hr
in
rain mn
in
humidity
%
barometer
mb
20260831014347 51 135 0.0 2.0 0.00 0.00 0.00 95 1016.3
20260831013836 51 45 0.0 2.0 0.00 0.00 0.00 95 1016.4
20260831013326 51 0 0.0 2.0 0.00 0.00 0.00 95 1016.1
20260831012816 51 0 0.0 2.0 0.00 0.00 0.00 95 1016.4
20260831012306 52 45 1.0 2.0 0.00 0.00 0.00 95 1016.1
20260831011757 52 270 0.0 2.0 0.00 0.00 0.00 95 1016.0
20260831010735 52 135 0.0 2.0 0.00 0.00 0.00 95 1016.3
20260831010226 52 315 0.0 2.0 0.00 0.00 0.00 95 1016.2
20260831005715 52 68 0.0 2.0 0.00 0.00 0.00 95 1016.3
20260831004145 52 158 0.0 2.0 0.00 0.00 0.00 94 1016.3
20260831003636 52 293 0.0 2.0 0.00 0.00 0.00 94 1016.4
20260831003125 52 225 0.0 2.0 0.00 0.00 0.00 94 1016.3
20260831002615 53 270 0.0 2.0 0.00 0.00 0.00 94 1016.3
20260831002104 53 315 1.0 2.0 0.00 0.00 0.00 94 1016.3
20260831001554 53 68 1.0 4.0 0.00 0.00 0.00 93 1016.3
20260831001044 53 158 1.0 4.0 0.00 0.00 0.00 93 1016.2
20260831000535 53 248 1.0 4.0 0.00 0.00 0.00 93 1016.2
20260831000023 53 338 1.0 4.0 0.00 0.00 0.00 92 1016.2
20260830235513 53 0 0.0 4.0 0.00 0.00 0.00 92 1016.4
20260830235004 53 270 1.0 4.0 0.00 0.00 0.00 92 1016.5
20260830234453 53 293 1.0 4.0 0.00 0.00 0.00 92 1016.4
20260830233944 53 68 1.0 4.0 0.00 0.00 0.00 92 1016.2
20260830233433 53 203 2.0 4.0 0.00 0.00 0.00 92 1016.3
20260830232923 53 270 1.0 4.0 0.00 0.00 0.00 92 1016.0
20260830232413 53 315 1.0 6.0 0.00 0.00 0.00 92 1016.3
20260830231353 53 270 2.0 4.0 0.00 0.00 0.00 92 1016.3
20260830230842 53 68 0.0 4.0 0.00 0.00 0.00 92 1016.4
20260830230332 53 68 0.0 4.0 0.00 0.00 0.00 92 1016.4
20260830225822 54 338 1.0 4.0 0.00 0.00 0.00 92 1016.2
20260830224801 54 315 0.0 4.0 0.00 0.00 0.00 91 1016.3
20260830224252 54 45 1.0 4.0 0.00 0.00 0.00 91 1016.1
20260830223232 54 113 0.0 4.0 0.00 0.00 0.00 89 1016.2
20260830222724 54 90 0.0 2.0 0.00 0.00 0.00 89 1015.9
20260830222211 55 0 1.0 2.0 0.00 0.00 0.00 88 1015.9
20260830221700 55 113 1.0 4.0 0.00 0.00 0.00 87 1015.9
20260830221151 55 113 0.0 4.0 0.00 0.00 0.00 85 1015.9
20260830220640 55 158 1.0 2.0 0.00 0.00 0.00 84 1015.8
20260830220131 55 315 1.0 2.0 0.00 0.00 0.00 82 1015.7
20260830215620 55 90 0.0 2.0 0.00 0.00 0.00 81 1015.7
20260830215111 55 68 0.0 2.0 0.00 0.00 0.00 79 1015.8
20260830214600 56 68 0.0 2.0 0.00 0.00 0.00 79 1015.9
20260830214049 56 90 0.0 2.0 0.00 0.00 0.00 78 1015.5
20260830213030 56 23 0.0 2.0 0.00 0.00 0.00 77 1015.5
20260830212520 57 135 0.0 4.0 0.00 0.00 0.00 77 1015.7
20260830212009 57 270 0.0 4.0 0.00 0.00 0.00 77 1015.7
20260830211459 58 0 2.0 4.0 0.00 0.00 0.00 76 1015.5
20260830210949 58 180 1.0 2.0 0.00 0.00 0.00 75 1015.5
20260830205928 59 270 0.0 2.0 0.00 0.00 0.00 72 1015.5
20260830205420 60 45 0.0 4.0 0.00 0.00 0.00 73 1015.4
20260830204908 59 293 0.0 4.0 0.00 0.00 0.00 73 1015.4
20260830204359 60 0 1.0 4.0 0.00 0.00 0.00 71 1015.6
20260830203848 61 338 0.0 2.0 0.00 0.00 0.00 70 1015.5
20260830202828 65 23 0.0 4.0 0.00 0.00 0.00 62 1015.6
20260830202319 65 270 0.0 4.0 0.00 0.00 0.00 58 1015.5
20260830201807 66 203 1.0 4.0 0.00 0.00 0.00 57 1015.4
20260830201258 66 68 1.0 7.0 0.00 0.00 0.00 47 1015.4
20260830200749 66 45 2.0 7.0 0.00 0.00 0.00 47 1015.4
20260830200238 66 45 2.0 6.0 0.00 0.00 0.00 48 1015.5
20260830195727 66 68 2.0 6.0 0.00 0.00 0.00 48 1015.4
20260830195217 66 68 2.0 7.0 0.00 0.00 0.00 48 1015.6
20260830194707 66 113 4.0 8.0 0.00 0.00 0.00 47 1015.5
20260830194158 66 68 3.0 8.0 0.00 0.00 0.00 50 1015.6
20260830193646 65 90 3.0 8.0 0.00 0.00 0.00 50 1015.6
20260830193136 66 23 2.0 8.0 0.00 0.00 0.00 51 1015.7
20260830192626 66 113 2.0 8.0 0.00 0.00 0.00 51 1015.5
20260830192116 66 45 3.0 8.0 0.00 0.00 0.00 51 1015.6
20260830191607 67 23 3.0 7.0 0.00 0.00 0.00 52 1015.7
20260830190545 67 113 2.0 7.0 0.00 0.00 0.00 52 1015.6
20260830190035 67 113 2.0 7.0 0.00 0.00 0.00 51 1015.5
20260830185016 67 68 2.0 8.0 0.00 0.00 0.00 50 1015.5
20260830184512 68 180 2.0 7.0 0.00 0.00 0.00 49 1015.5
20260830182425 68 45 3.0 8.0 0.00 0.00 0.00 51 1015.4
20260830181913 67 45 2.0 8.0 0.00 0.00 0.00 51 1015.5
20260830181404 67 45 4.0 8.0 0.00 0.00 0.00 53 1015.6
20260830180855 67 90 4.0 8.0 0.00 0.00 0.00 53 1015.6
20260830180343 67 68 5.0 8.0 0.00 0.00 0.00 55 1015.5
20260830175833 67 68 3.0 8.0 0.00 0.00 0.00 53 1015.5
20260830175324 67 90 3.0 8.0 0.00 0.00 0.00 52 1015.7
20260830174813 67 0 4.0 8.0 0.00 0.00 0.00 53 1015.2
20260830174304 67 338 4.0 7.0 0.00 0.00 0.00 54 1015.5
20260830173753 67 135 3.0 11.0 0.00 0.00 0.00 53 1015.6
20260830173243 66 45 3.0 11.0 0.00 0.00 0.00 54 1015.5
20260830172733 66 68 2.0 9.0 0.00 0.00 0.00 54 1015.5
20260830172225 66 45 3.0 7.0 0.00 0.00 0.00 56 1015.6
20260830170916 66 90 3.0 11.0 0.00 0.00 0.00 55 1015.8
20260830170406 66 23 5.0 11.0 0.00 0.00 0.00 56 1016.0
20260830165856 67 68 3.0 13.0 0.00 0.00 0.00 54 1016.0
20260830165346 66 68 3.0 13.0 0.00 0.00 0.00 55 1016.1
20260830164836 66 158 5.0 9.0 0.00 0.00 0.00 55 1016.2
20260830164326 66 23 4.0 9.0 0.00 0.00 0.00 56 1016.2
20260830163815 66 0 4.0 9.0 0.00 0.00 0.00 55 1016.1
20260830163305 67 23 4.0 8.0 0.00 0.00 0.00 55 1016.2
20260830162755 66 90 3.0 7.0 0.00 0.00 0.00 55 1016.0
20260830162245 67 90 3.0 8.0 0.00 0.00 0.00 54 1016.3
20260830161735 67 180 2.0 11.0 0.00 0.00 0.00 54 1016.2
20260830161224 66 68 5.0 11.0 0.00 0.00 0.00 54 1016.2
20260830160714 67 45 4.0 7.0 0.00 0.00 0.00 53 1016.2
20260830160204 67 68 2.0 9.0 0.00 0.00 0.00 53 1016.4
20260830155655 67 68 7.0 11.0 0.00 0.00 0.00 54 1016.5
20260830155144 66 45 2.0 11.0 0.00 0.00 0.00 54 1016.5
20260830154634 66 90 3.0 11.0 0.00 0.00 0.00 55 1016.5
20260830154124 66 68 4.0 8.0 0.00 0.00 0.00 55 1016.6
20260830153614 66 68 4.0 8.0 0.00 0.00 0.00 56 1016.7
20260830153103 67 90 2.0 6.0 0.00 0.00 0.00 54 1016.8
20260830152553 66 113 2.0 8.0 0.00 0.00 0.00 54 1016.6
20260830152044 65 113 4.0 8.0 0.00 0.00 0.00 55 1016.4
20260830151533 65 338 2.0 8.0 0.00 0.00 0.00 56 1016.7
20260830151032 65 0.0 0.0 0.00 0.00 0.00 65
20260830142850 62 113 2.0 7.0 0.00 0.00 0.00 74 1017.1
20260830142340 63 293 2.0 4.0 0.00 0.00 0.00 73 1017.1
20260830141829 62 90 1.0 4.0 0.00 0.00 0.00 74 1017.0
20260830141319 61 158 1.0 4.0 0.00 0.00 0.00 75 1017.2
20260830140813 61 203 2.0 6.0 0.00 0.00 0.00 76 1017.0
20260830140303 61 23 2.0 7.0 0.00 0.00 0.00 76 1017.1
20260830135753 61 203 1.0 7.0 0.00 0.00 0.00 76 1017.1
20260830135243 61 23 1.0 7.0 0.00 0.00 0.00 75 1017.0
20260830134733 62 23 1.0 4.0 0.00 0.00 0.00 74 1017.2
20260830134223 63 248 2.0 4.0 0.00 0.00 0.00 73 1017.0
20260830133712 63 113 0.0 4.0 0.00 0.00 0.00 72 1017.2
20260830133202 63 158 1.0 4.0 0.00 0.00 0.00 71 1017.2
20260830132652 63 180 1.0 4.0 0.00 0.00 0.00 72 1017.1
20260830132142 61 270 0.0 4.0 0.00 0.00 0.00 75 1017.2
20260830131633 60 113 0.0 4.0 0.00 0.00 0.00 76 1017.2
20260830131122 60 225 1.0 4.0 0.00 0.00 0.00 77 1017.1
20260830130612 59 203 1.0 4.0 0.00 0.00 0.00 78 1017.2
20260830130120 59 68 2.0 4.0 0.00 0.00 0.00 79 1017.2
20260830125552 59 68 1.0 4.0 0.00 0.00 0.00 80 1017.1
20260830125042 59 23 2.0 4.0 0.00 0.00 0.00 79 1017.3
20260830124531 59 23 1.0 4.0 0.00 0.00 0.00 79 1017.3
20260830124021 59 180 2.0 7.0 0.00 0.00 0.00 78 1017.2
20260830123510 59 225 2.0 7.0 0.00 0.00 0.00 77 1017.1
20260830123000 60 0 1.0 4.0 0.00 0.00 0.00 73 1017.3
20260830122451 59 248 2.0 4.0 0.00 0.00 0.00 72 1017.2
20260830121940 58 45 2.0 6.0 0.00 0.00 0.00 72 1017.3
20260830121430 58 45 2.0 6.0 0.00 0.00 0.00 73 1017.3
20260830120920 58 90 1.0 6.0 0.00 0.00 0.00 74 1017.5
20260830120410 57 68 2.0 6.0 0.00 0.00 0.00 75 1017.4
20260830115859 56 90 2.0 4.0 0.00 0.00 0.00 79 1017.4
20260830115355 55 45 1.0 4.0 0.00 0.00 0.00 82 1017.4
20260830114840 54 68 2.0 4.0 0.00 0.00 0.00 87 1017.4
20260830114329 53 158 1.0 4.0 0.00 0.00 0.00 91 1017.1
20260830113309 52 90 0.0 4.0 0.00 0.00 0.00 94 1017.2
20260830112758 52 68 2.0 4.0 0.00 0.00 0.00 95 1016.9
20260830112249 52 113 2.0 4.0 0.00 0.00 0.00 95 1016.8
20260830111738 51 68 1.0 2.0 0.00 0.00 0.00 96 1016.7
20260830110718 50 68 0.0 2.0 0.00 0.00 0.00 96 1016.7
20260830110208 50 45 0.0 2.0 0.00 0.00 0.00 95 1016.5
20260830105658 50 23 0.0 2.0 0.00 0.00 0.00 95 1016.6
20260830105148 49 68 0.0 2.0 0.00 0.00 0.00 95 1016.4
20260830104638 49 45 0.0 2.0 0.00 0.00 0.00 95 1016.3
20260830104127 48 45 0.0 2.0 0.00 0.00 0.00 95 1016.3
20260830103617 48 45 0.0 2.0 0.00 0.00 0.00 95 1016.2
20260830103107 47 45 0.0 2.0 0.00 0.00 0.00 95 1016.3
20260830102557 47 180 0.0 2.0 0.00 0.00 0.00 95 1016.3
20260830102047 46 113 0.0 2.0 0.00 0.00 0.00 94 1016.3
20260830101536 46 45 0.0 2.0 0.00 0.00 0.00 94 1016.4
20260830100516 44 45 0.0 0.0 0.00 0.00 0.00 94 1016.3
20260830095456 44 45 0.0 0.0 0.00 0.00 0.00 93 1016.3
20260830094947 44 45 0.0 0.0 0.00 0.00 0.00 93 1016.5
20260830094433 43 45 0.0 0.0 0.00 0.00 0.00 93 1016.6
20260830093415 44 45 0.0 0.0 0.00 0.00 0.00 93 1016.3
20260830092905 44 45 0.0 0.0 0.00 0.00 0.00 93 1016.5
20260830092400 44 45 0.0 0.0 0.00 0.00 0.00 93 1016.5
20260830091335 45 45 0.0 0.0 0.00 0.00 0.00 93 1016.6
20260830090315 44 45 0.0 0.0 0.00 0.00 0.00 92 1016.1
20260830085255 45 45 0.0 0.0 0.00 0.00 0.00 92 1016.4
20260830084745 45 68 0.0 0.0 0.00 0.00 0.00 92 1016.3
20260830083724 45 68 0.0 2.0 0.00 0.00 0.00 92 1016.3
20260830083215 45 68 0.0 2.0 0.00 0.00 0.00 91 1016.2
20260830082703 45 68 0.0 2.0 0.00 0.00 0.00 91 1016.2
20260830082154 45 45 0.0 2.0 0.00 0.00 0.00 91 1016.2
20260830081644 45 45 0.0 2.0 0.00 0.00 0.00 91 1016.2
20260830081134 45 45 0.0 2.0 0.00 0.00 0.00 91 1016.2
20260830080623 45 45 0.0 2.0 0.00 0.00 0.00 91 1016.4
20260830080113 45 45 0.0 2.0 0.00 0.00 0.00 91 1016.4
20260830075603 46 45 0.0 2.0 0.00 0.00 0.00 90 1016.5
20260830075053 46 45 0.0 2.0 0.00 0.00 0.00 90 1016.4
20260830074543 46 45 0.0 2.0 0.00 0.00 0.00 90 1016.6
20260830074037 46 45 0.0 2.0 0.00 0.00 0.00 90 1016.7
20260830073522 46 45 0.0 2.0 0.00 0.00 0.00 89 1016.6
20260830073012 46 45 2.0 2.0 0.00 0.00 0.00 89 1016.8
20260830072502 46 45 1.0 2.0 0.00 0.00 0.00 89 1016.8
20260830071951 46 68 1.0 2.0 0.00 0.00 0.00 88 1016.6
20260830071441 46 23 0.0 2.0 0.00 0.00 0.00 88 1016.4
20260830070928 46 68 1.0 2.0 0.00 0.00 0.00 87 1016.4
20260830070422 47 68 0.0 2.0 0.00 0.00 0.00 86 1016.6
20260830065911 47 45 0.0 2.0 0.00 0.00 0.00 85 1016.4
20260830065402 47 45 0.0 2.0 0.00 0.00 0.00 84 1016.4
20260830063321 48 68 0.0 2.0 0.00 0.00 0.00 78 1016.2
20260830062815 49 68 0.0 2.0 0.00 0.00 0.00 78 1016.4
20260830062300 48 45 0.0 2.0 0.00 0.00 0.00 77 1016.4
20260830061750 49 45 0.0 2.0 0.00 0.00 0.00 75 1016.4
20260830061241 49 45 0.0 0.0 0.00 0.00 0.00 74 1016.3
20260830060730 50 45 0.0 0.0 0.00 0.00 0.00 73 1016.4
20260830060220 50 45 0.0 2.0 0.00 0.00 0.00 71 1016.3
20260830055710 51 45 1.0 2.0 0.00 0.00 0.00 69 1016.3
20260830055159 50 45 0.0 2.0 0.00 0.00 0.00 68 1016.3
20260830054649 51 45 0.0 2.0 0.00 0.00 0.00 65 1016.5
20260830054140 51 68 0.0 2.0 0.00 0.00 0.00 63 1016.4
20260830053629 51 68 1.0 0.0 0.00 0.00 0.00 63 1016.1
20260830053208 51 68 1.0 0.0 0.00 0.00 0.00 62 1016.1
20260830052110 52 45 0.0 2.0 0.00 0.01 0.00 61 1016.1
20260830051600 52 113 0.0 2.0 0.00 0.01 0.00 62 1016.0
20260830051050 52 68 0.0 2.0 0.00 0.01 0.00 62 1015.9
20260830050540 52 90 0.0 2.0 0.00 0.01 0.00 60 1016.0
20260830045519 53 68 0.0 4.0 0.00 0.01 0.00 57 1015.8
20260830045009 53 90 2.0 4.0 0.00 0.01 0.00 56 1015.9
20260830044459 52 90 1.0 2.0 0.00 0.01 0.00 57 1015.7
20260830043948 52 68 0.0 2.0 0.00 0.01 0.00 58 1015.8
20260830043438 52 113 0.0 2.0 0.00 0.01 0.00 59 1015.7
20260830042928 53 68 1.0 2.0 0.00 0.01 0.00 59 1015.9
20260830042418 53 90 0.0 2.0 0.00 0.01 0.00 59 1015.8
20260830041358 53 90 1.0 2.0 0.00 0.01 0.00 61 1015.8
20260830040848 53 90 0.0 2.0 0.00 0.01 0.00 61 1016.1
20260830035317 52 45 1.0 2.0 0.00 0.01 0.00 55 1016.1
20260830034812 53 90 0.0 2.0 0.00 0.01 0.00 58 1016.0
20260830034256 53 68 0.0 2.0 0.00 0.01 0.00 59 1016.0
20260830033236 53 68 1.0 2.0 0.00 0.01 0.00 62 1016.1
20260830032726 53 68 0.0 4.0 0.00 0.01 0.00 62 1016.3
20260830032217 53 90 0.0 4.0 0.00 0.01 0.00 61 1016.2
20260830031707 53 45 1.0 4.0 0.00 0.01 0.00 61 1016.1
20260830031156 53 113 2.0 4.0 0.00 0.01 0.00 61 1016.2
20260830030647 53 45 1.0 4.0 0.00 0.01 0.00 62 1016.1
20260830030137 53 135 2.0 4.0 0.00 0.01 0.00 63 1015.9
20260830025625 53 90 1.0 4.0 0.00 0.01 0.01 64 1015.9
20260830025116 53 90 2.0 6.0 0.00 0.01 0.01 66 1016.0
20260830024606 53 315 1.0 6.0 0.00 0.01 0.01 67 1015.8
20260830023035 53 90 2.0 4.0 0.00 0.01 0.01 70 1015.9
20260830022524 53 90 1.0 8.0 0.00 0.01 0.01 70 1016.1
20260830022015 53 45 1.0 8.0 0.00 0.01 0.01 70 1016.0
20260830021514 53 225 2.0 4.0 0.00 0.01 0.01 71 1016.0
20260830020954 53 45 2.0 4.0 0.00 0.01 0.01 71 1016.1
20260830020444 52 45 0.0 4.0 0.00 0.01 0.01 71 1016.1
20260830015424 53 90 0.0 2.0 0.00 0.01 0.01 72 1016.0
20260830014913 53 90 1.0 4.0 0.00 0.01 0.01 72 1016.1